Wind_Speed
28 24 23 23 23 24 26 25 23 21 20 21 21 21 21 19 18 18 18 18 18 17 16 16 16 16 15 14 14 16 16 16 17 17 18 18 19 18 19 19 19 19 19 18
31 26 24 24 24 26 26 24 23 22 23 23 22 22 21 20 20 20 19 19 19 18 18 17 17 17 17 18 17 17 17 18 18 18 19 20 20 20 19 19 20 20 20 19
30 30 27 28 26 26 27 26 25 25 25 24 26 26 24 24 23 21 21 20 19 19 19 19 18 19 19 19 19 19 19 19 20 20 20 21 21 20 20 20 20 20 20 20
28 28 30 28 25 25 28 28 27 28 28 27 28 28 27 25 23 22 22 21 19 20 20 20 20 20 20 21 20 20 21 21 20 21 21 21 21 21 20 21 21 20 21 22
29 29 28 27 26 27 28 29 28 30 29 28 30 30 28 26 24 23 22 21 20 21 21 21 21 22 22 22 22 22 22 22 22 22 21 21 21 21 21 21 21 22 22 23
31 30 28 26 27 27 28 31 29 30 31 31 31 30 28 27 27 27 25 23 22 23 22 22 23 23 23 23 23 23 22 23 23 22 22 22 22 22 22 23 23 23 23 24
31 31 30 28 27 26 28 29 30 30 31 32 31 31 30 29 28 27 26 25 24 25 25 24 23 23 23 23 23 23 23 23 23 22 22 23 23 23 24 24 24 24 24 24
31 31 28 30 29 29 29 29 29 30 32 33 31 30 30 29 29 28 28 26 26 25 25 24 24 24 24 24 24 24 23 23 23 23 24 24 24 24 25 25 24 25 24 24
32 33 33 32 32 32 31 30 30 31 31 30 30 30 31 30 29 29 28 27 26 25 25 25 25 26 25 25 25 25 24 24 24 25 25 25 25 25 25 24 24 24 24 24
33 33 32 33 33 33 33 32 31 31 31 32 32 31 30 30 29 28 28 27 26 27 27 27 27 27 27 27 27 26 26 26 26 26 27 27 26 26 25 24 24 24 25 25
33 33 34 34 34 35 35 33 33 32 32 33 32 32 31 30 28 29 29 29 28 28 28 29 29 28 28 28 27 27 26 26 26 26 26 26 26 26 26 26 26 25 26 26
33 33 34 35 33 33 34 34 33 30 31 32 31 31 31 31 31 31 31 31 31 30 30 30 30 29 29 29 28 27 28 28 28 28 26 26 26 26 27 27 27 26 27 27
33 33 34 35 35 33 33 33 33 32 32 32 31 31 31 31 30 30 31 31 32 32 32 32 31 31 29 29 28 29 29 28 28 28 27 27 27 28 28 28 28 28 27 28
30 31 32 33 33 32 32 33 32 32 33 32 32 31 31 31 31 31 31 31 32 33 33 33 32 31 30 30 29 29 29 29 29 29 29 29 28 29 29 29 28 28 28 28
31 31 30 30 31 30 29 30 31 32 32 32 32 33 32 32 32 32 32 32 33 33 33 33 32 31 30 29 29 29 29 29 29 29 30 30 30 29 29 29 29 28 28 28
29 30 30 29 29 30 30 30 32 32 32 32 32 33 33 33 33 33 32 32 32 33 32 32 32 32 31 30 30 31 31 31 31 31 30 31 31 31 30 30 30 29 28 28
30 29 29 28 27 29 30 30 31 31 31 32 33 32 32 31 32 32 31 31 31 31 31 31 32 32 31 31 31 32 33 32 32 31 31 31 31 31 31 30 30 30 29 29
29 29 29 29 28 28 29 29 30 30 30 32 32 31 31 31 31 31 31 31 32 31 31 32 32 32 32 32 32 33 33 33 34 32 31 32 31 31 31 31 30 30 29 29
26 26 26 27 28 28 28 29 29 30 30 31 31 31 31 31 31 31 31 31 31 31 32 33 32 33 33 34 33 33 34 34 34 34 34 32 31 31 31 31 30 30 30 30
25 25 25 26 27 27 27 28 28 29 30 30 31 31 30 30 30 30 30 31 31 32 33 34 33 33 34 33 33 33 34 34 35 34 34 34 33 31 30 30 30 30 30 30
26 26 26 26 26 26 26 27 28 28 29 29 29 30 30 30 30 30 30 30 31 31 32 31 31 31 31 32 32 32 33 33 33 33 33 32 32 31 30 30 30 30 29 30
26 26 26 26 26 26 26 27 28 28 29 30 30 30 30 30 30 30 30 30 30 30 30 30 29 29 30 31 31 31 31 32 32 31 30 30 30 30 30 29 29 29 30 29
25 25 26 27 26 26 27 27 28 28 29 30 30 30 29 29 29 29 29 29 29 29 29 29 29 29 30 30 30 31 31 31 30 29 29 29 28 28 28 29 28 27 27 27
24 24 25 25 26 26 26 27 27 27 28 29 29 30 29 29 29 29 29 29 29 28 28 29 29 29 30 31 31 30 29 29 29 29 29 28 28 28 28 28 27 26 26 27
23 24 25 25 26 26 26 27 27 27 27 27 27 28 28 29 29 28 29 29 29 28 28 28 28 29 29 29 29 29 28 28 27 27 26 26 26 26 26 25 24 24 25 25
22 22 23 23 23 24 25 26 25 25 26 26 26 27 27 27 27 27 28 28 28 27 27 27 27 27 27 27 27 28 27 27 27 26 26 26 26 26 26 25 25 25 25 25
20 20 21 21 22 23 24 25 25 25 25 25 25 26 26 25 26 26 26 26 26 25 25 25 25 25 25 26 26 26 26 26 26 25 26 26 25 26 25 24 24 24 24 25
Wind_Direction
213 215 224 229 226 225 227 227 231 238 243 252 257 258 262 263 265 265 265 267 268 271 274 274 278 282 288 294 296 299 301 304 306 309 313 316 317 317 319 322 324 324 322 320
217 216 220 225 227 223 224 225 229 236 240 244 252 256 261 262 264 264 265 264 267 270 272 273 276 280 285 289 293 297 299 302 303 306 309 310 312 312 315 317 319 320 319 317
220 220 223 223 225 227 225 224 225 231 240 243 248 254 258 260 262 265 265 264 267 269 271 272 276 279 283 285 287 291 294 298 301 305 307 308 308 309 310 313 314 316 315 314
219 223 229 228 226 228 231 231 229 231 237 242 247 251 256 261 261 261 261 265 266 268 271 274 275 279 283 286 287 289 293 294 297 301 302 304 305 306 307 309 311 312 312 311
224 228 233 232 228 227 229 230 229 228 233 239 244 249 253 257 257 258 263 263 264 267 271 275 276 279 281 281 284 288 291 291 295 299 299 301 302 303 305 307 308 309 310 310
225 227 231 232 230 230 231 234 232 230 232 237 243 249 253 256 259 259 262 263 263 267 271 274 276 277 279 279 281 286 289 292 294 295 297 298 300 301 302 304 305 306 308 309
225 230 232 231 231 230 228 231 232 234 234 238 242 248 253 256 259 262 263 262 263 266 270 273 274 277 278 279 279 282 286 290 292 293 297 298 298 299 301 302 302 304 305 306
226 227 231 234 231 230 232 232 234 236 237 240 246 251 255 257 258 260 262 263 263 265 269 272 274 276 279 279 281 284 287 288 289 291 295 297 298 298 299 301 301 302 303 304
227 227 229 233 234 235 236 237 239 241 243 245 248 252 256 256 257 258 259 260 261 265 268 271 274 276 279 280 282 284 286 287 288 290 292 294 297 299 299 299 300 300 301 302
227 229 231 233 236 239 238 240 241 242 245 248 249 253 256 256 255 254 256 258 260 264 267 271 273 275 277 280 282 281 283 285 287 288 291 293 294 295 297 300 300 300 300 301
226 230 232 235 237 238 240 240 243 245 246 247 249 252 255 255 256 256 256 255 259 263 267 270 272 273 275 277 279 281 282 284 285 287 289 291 293 294 297 300 301 298 299 301
223 227 231 236 238 240 241 242 244 244 245 247 249 252 254 255 258 258 257 256 260 262 266 269 272 272 274 274 275 278 281 282 283 285 287 289 291 293 296 297 299 300 299 300
227 228 233 238 242 244 243 244 247 246 246 247 249 252 255 255 257 258 257 257 260 263 265 267 269 271 273 274 274 276 279 280 282 284 285 286 288 290 293 295 296 298 299 300
230 233 237 241 243 244 245 247 248 248 249 249 250 253 255 256 257 257 258 260 261 262 264 267 268 270 272 273 273 274 277 279 280 282 284 285 287 290 292 292 294 296 298 299
235 237 241 243 244 244 246 247 246 248 250 252 253 254 255 256 256 257 259 260 261 262 265 266 268 270 270 272 273 273 276 278 279 281 283 284 286 288 290 291 293 294 296 298
239 243 244 246 245 245 247 249 249 250 251 252 253 254 256 257 258 258 259 261 262 262 263 264 267 269 269 271 272 273 275 277 279 279 281 283 285 287 288 290 292 293 294 295
242 243 244 246 246 247 249 251 251 251 253 253 254 255 256 257 258 258 258 260 261 260 262 265 267 268 269 271 272 273 275 277 278 280 281 282 283 285 286 288 289 291 292 293
244 246 248 249 249 250 249 250 250 251 254 254 253 254 255 256 256 256 258 261 262 263 265 267 268 268 270 271 273 275 276 277 279 281 282 283 284 285 286 286 287 288 289 290
246 247 250 252 252 253 252 250 251 253 254 253 253 254 254 255 256 258 261 263 265 264 265 266 267 267 270 272 273 275 277 277 279 281 282 283 283 284 284 285 285 285 286 288
248 250 253 253 252 255 255 254 254 254 253 253 253 253 253 255 258 260 261 262 264 265 266 266 267 268 271 272 272 274 276 278 279 281 282 282 283 283 283 283 283 284 286 287
250 252 253 254 255 256 257 256 256 256 255 256 257 257 257 258 260 261 262 264 265 266 267 267 269 271 272 272 272 274 276 279 280 281 282 283 283 284 283 282 282 284 285 286
251 253 253 255 257 257 258 258 257 256 257 257 257 258 258 259 260 262 264 266 268 267 268 269 271 272 273 274 276 277 278 279 280 281 282 283 283 284 284 283 283 284 284 284
253 253 254 255 256 258 259 258 258 257 257 256 255 256 256 258 260 262 263 266 268 268 269 270 271 271 272 274 276 278 278 279 279 280 281 282 283 285 286 286 286 287 287 288
255 255 256 256 257 258 259 259 259 259 259 258 257 256 256 258 261 262 264 266 266 268 269 270 271 273 273 273 275 278 278 278 279 279 280 280 282 284 286 286 285 285 287 290
257 258 257 257 259 261 261 261 261 260 261 260 260 259 259 259 261 263 265 266 267 268 269 270 271 272 273 274 274 276 278 278 279 281 282 282 283 284 285 284 284 287 289 291
259 260 261 261 261 262 262 261 259 258 259 260 260 261 262 262 264 265 266 266 267 268 270 270 271 272 273 273 274 276 278 277 277 278 282 284 284 284 285 285 286 288 290 292
260 261 262 262 263 263 261 259 259 259 260 261 262 262 262 263 263 265 266 266 266 267 268 269 271 272 273 273 275 277 278 279 279 280 282 285 285 284 283 284 285 287 290 292
Height
5864 5869 5873 5875 5879 5883 5886 5889 5893 5895 5895 5893 5893 5894 5895 5896 5897 5898 5898 5898 5899 5899 5900 5900 5900 5900 5899 5898 5898 5897 5897 5896 5895 5893 5892 5890 5889 5887 5886 5884 5882 5879 5877 5875
5858 5863 5867 5871 5874 5877 5881 5884 5888 5890 5890 5889 5889 5889 5890 5891 5892 5894 5894 5894 5895 5896 5896 5896 5896 5896 5896 5895 5895 5894 5894 5893 5891 5890 5888 5887 5885 5884 5882 5880 5878 5876 5874 5872
5852 5857 5860 5864 5868 5871 5875 5878 5882 5883 5884 5884 5885 5885 5885 5886 5887 5889 5890 5890 5891 5892 5892 5892 5892 5892 5892 5892 5891 5891 5890 5889 5888 5886 5884 5883 5881 5880 5878 5876 5875 5872 5870 5868
5845 5851 5853 5859 5863 5866 5869 5872 5875 5876 5877 5879 5880 5880 5880 5880 5882 5883 5884 5886 5887 5887 5888 5888 5888 5888 5888 5887 5887 5886 5886 5885 5883 5882 5880 5879 5877 5876 5874 5872 5870 5868 5866 5864
5840 5843 5847 5852 5856 5858 5861 5863 5866 5869 5871 5871 5873 5874 5875 5875 5877 5878 5880 5881 5882 5883 5883 5884 5884 5883 5883 5883 5882 5881 5880 5879 5877 5877 5875 5874 5872 5871 5869 5867 5865 5863 5861 5859
5833 5837 5841 5846 5847 5850 5854 5856 5859 5861 5863 5865 5866 5868 5870 5871 5872 5873 5874 5876 5877 5878 5878 5878 5878 5878 5878 5878 5877 5876 5875 5874 5872 5872 5870 5869 5867 5866 5864 5862 5860 5858 5856 5854
5826 5830 5834 5837 5839 5843 5847 5848 5851 5853 5856 5859 5860 5862 5864 5865 5867 5867 5868 5870 5871 5872 5872 5873 5873 5873 5872 5872 5871 5871 5870 5869 5867 5866 5865 5863 5862 5860 5858 5857 5855 5853 5851 5849
5820 5824 5829 5829 5832 5835 5837 5839 5843 5846 5849 5851 5852 5854 5857 5859 5860 5861 5861 5863 5864 5865 5866 5866 5866 5867 5866 5866 5865 5864 5864 5863 5862 5860 5859 5858 5856 5854 5852 5851 5849 5847 5845 5843
5813 5817 5819 5822 5825 5828 5830 5833 5835 5839 5841 5844 5846 5848 5850 5852 5853 5854 5855 5857 5858 5859 5860 5860 5860 5861 5860 5860 5859 5859 5858 5857 5856 5854 5853 5852 5850 5848 5846 5844 5842 5840 5839 5837
5805 5809 5813 5816 5819 5821 5824 5827 5829 5832 5835 5837 5839 5841 5843 5844 5846 5847 5849 5850 5851 5853 5853 5854 5854 5854 5854 5853 5853 5852 5852 5851 5850 5848 5847 5845 5844 5842 5840 5838 5836 5834 5832 5831
5798 5803 5806 5808 5810 5813 5817 5819 5822 5824 5827 5830 5833 5835 5836 5837 5837 5840 5841 5843 5844 5845 5846 5847 5847 5847 5847 5847 5846 5846 5845 5844 5843 5842 5840 5839 5837 5835 5834 5832 5830 5828 5826 5824
5791 5795 5799 5801 5803 5806 5809 5812 5814 5816 5820 5822 5825 5827 5829 5830 5831 5833 5834 5836 5837 5837 5838 5839 5839 5839 5839 5839 5839 5839 5838 5837 5836 5835 5833 5832 5830 5829 5827 5826 5824 5821 5820 5818
5784 5787 5791 5794 5796 5800 5802 5805 5807 5810 5813 5815 5817 5819 5821 5823 5824 5825 5826 5827 5829 5830 5830 5831 5832 5832 5832 5831 5831 5831 5830 5830 5828 5827 5826 5825 5824 5822 5821 5819 5817 5815 5813 5811
5777 5780 5784 5787 5790 5793 5796 5798 5800 5803 5805 5807 5809 5811 5813 5815 5816 5817 5818 5819 5821 5821 5822 5823 5823 5823 5823 5823 5823 5823 5822 5822 5821 5820 5819 5818 5817 5815 5813 5812 5810 5808 5806 5804
5771 5775 5778 5779 5782 5786 5788 5790 5792 5795 5797 5799 5801 5803 5805 5806 5807 5808 5810 5811 5812 5812 5813 5814 5814 5814 5815 5815 5815 5815 5814 5813 5812 5812 5811 5810 5809 5807 5806 5804 5803 5801 5799 5796
5765 5768 5771 5773 5775 5778 5781 5783 5785 5787 5789 5790 5792 5794 5796 5798 5799 5799 5801 5802 5803 5804 5804 5805 5805 5806 5806 5807 5807 5807 5806 5806 5804 5802 5802 5801 5800 5799 5797 5796 5794 5793 5791 5789
5759 5762 5764 5766 5768 5770 5773 5775 5776 5779 5780 5782 5784 5786 5788 5789 5789 5790 5792 5793 5794 5795 5795 5796 5797 5797 5797 5798 5798 5798 5797 5796 5795 5793 5792 5792 5791 5790 5789 5787 5786 5785 5783 5781
5752 5755 5757 5759 5761 5763 5765 5767 5768 5770 5772 5773 5775 5777 5779 5780 5781 5782 5783 5784 5785 5786 5787 5788 5788 5788 5789 5789 5789 5789 5788 5788 5787 5785 5785 5783 5782 5781 5780 5779 5777 5776 5775 5773
5746 5749 5750 5752 5754 5756 5757 5759 5760 5762 5763 5765 5767 5769 5771 5772 5773 5774 5775 5776 5777 5778 5778 5779 5779 5779 5779 5780 5780 5779 5778 5778 5777 5776 5775 5774 5773 5772 5771 5770 5768 5767 5766 5765
5740 5742 5744 5745 5747 5748 5750 5751 5752 5754 5755 5756 5758 5760 5762 5763 5764 5765 5766 5767 5768 5769 5769 5769 5770 5770 5770 5770 5769 5769 5769 5768 5768 5766 5765 5765 5764 5763 5761 5760 5759 5758 5756 5755
5734 5736 5737 5739 5740 5741 5742 5743 5744 5746 5747 5748 5750 5752 5753 5755 5756 5757 5757 5758 5760 5760 5760 5760 5760 5761 5761 5760 5760 5760 5759 5758 5758 5757 5756 5755 5754 5753 5752 5751 5750 5749 5747 5746
5728 5729 5730 5732 5733 5734 5735 5736 5737 5738 5738 5740 5741 5743 5744 5746 5747 5748 5749 5750 5750 5750 5750 5751 5751 5752 5752 5752 5751 5751 5750 5749 5748 5748 5747 5746 5746 5745 5743 5742 5741 5740 5738 5737
5721 5722 5723 5724 5725 5726 5727 5728 5729 5729 5730 5731 5733 5734 5735 5737 5738 5739 5740 5741 5741 5741 5742 5742 5743 5743 5743 5742 5742 5742 5741 5740 5739 5739 5738 5738 5737 5736 5735 5734 5732 5731 5729 5728
5714 5714 5715 5716 5717 5718 5719 5719 5720 5721 5722 5723 5724 5725 5726 5728 5729 5730 5731 5732 5732 5733 5733 5734 5734 5734 5733 5734 5733 5733 5732 5731 5731 5730 5730 5729 5729 5728 5726 5725 5723 5722 5720 5719
5707 5707 5707 5708 5709 5710 5710 5711 5712 5712 5713 5714 5715 5716 5717 5719 5720 5721 5722 5722 5723 5724 5724 5725 5725 5724 5724 5725 5724 5724 5724 5723 5722 5722 5721 5721 5720 5719 5718 5716 5715 5714 5713 5711
5700 5700 5701 5701 5701 5701 5701 5702 5702 5703 5704 5705 5706 5707 5708 5710 5711 5712 5713 5713 5714 5715 5715 5715 5716 5716 5716 5716 5716 5716 5715 5715 5714 5714 5713 5713 5712 5711 5710 5709 5708 5706 5705 5704
5694 5694 5694 5694 5694 5693 5694 5694 5695 5696 5696 5697 5698 5699 5700 5701 5702 5703 5704 5705 5705 5706 5706 5707 5707 5707 5707 5707 5707 5707 5707 5706 5706 5706 5706 5705 5704 5703 5702 5701 5700 5699 5697 5696